Location: Fort Worth, Tx
(32.7431°N, 97.3695°W)
Time: 12:37:37
(UTC-05:00)

Tiangong - Visible Passes

Search period start: 09 December 2023 00:00
Search period end: 19 December 2023 00:00
Orbit: 372 x 383 km, 41.5° (Epoch: 09 December)

Date Brightness Start Highest point End Pass type
(mag) Time Alt. Az. Time Alt. Az. Time Alt. Az.
13 Dec 0.7 07:30:10 10° S 07:32:29 19° SE 07:34:49 10° E visible
15 Dec -0.7 07:02:29 12° SSW 07:05:04 36° SE 07:07:57 10° ENE visible
16 Dec 1.1 06:04:31 14° ESE 06:04:31 14° ESE 06:05:20 10° E visible
16 Dec -2.1 07:36:39 10° WSW 07:39:39 56° NNW 07:42:43 10° NE visible
17 Dec -1.2 06:38:21 46° E 06:38:21 46° E 06:40:42 10° ENE visible
18 Dec -1.5 07:11:53 33° NW 07:12:16 34° NNW 07:15:10 10° NE visible
